Meteo Giornale » Osservazioni meteo Stati Uniti (USA) » Oxnard

ore: 11:51 - Osservazioni Meteo Oxnard
Lat. 34° 12' N Lon. 119° 12' W Alt. 13 metri s.l.m.

foschia

22 °C

Foschia

Temp. 24 Ore

16 °C

25 °C

Ovest

20.3 Km/h

Dew point 16 °C

Umidità 68 %

Visibilità  10 Km

Il sole sorge alle ore 06:29

Il sole tramonta alle ore 19:24

Data e Ora Cielo e Fenomeni T °C DP °C Um. % Pres. hPa Vis. km Vento km/h
Oggi h: 11:51 foschia Foschia 22 16 68 1014 10 O 20.3
Oggi h: 11:42 molto_nuvoloso Molto Nuvoloso 22 16 68 1014 10 O/SO 20.3
Oggi h: 10:51 sereno Sereno 22 16 68 1014 14 O 18.5
Oggi h: 09:51 sereno Sereno 21 16 73 1014 14 O 13
Oggi h: 09:27 nuvoloso Nuvoloso 21 17 77 1013 13 O 13
Oggi h: 08:51 molto_nuvoloso Molto Nuvoloso 20 17 82 1013 11 O 13
Oggi h: 08:44 nuvoloso Nuvoloso 20 17 82 1013 11 O/NO 11.1
Oggi h: 08:26 molto_nuvoloso Molto Nuvoloso 19 16 82 1013 11 N 0
Oggi h: 08:18 nuvoloso Nuvoloso 19 16 82 1013 11 N 5.5
Oggi h: 07:51 foschia Foschia 18 16 88 1013 10 N 0
Oggi h: 06:51 foschia Foschia 16 15 93 1012 10 N 0
Oggi h: 05:51 sereno Sereno 16 14 87 1012 13 N 5.5
Oggi h: 04:51 sereno Sereno 17 15 88 1011 13 N 5.5
Oggi h: 03:51 sereno Sereno 17 15 88 1012 13 N 0
Oggi h: 02:51 sereno Sereno 17 15 88 1011 14 N 5.5
Oggi h: 01:51 sereno Sereno 18 16 88 1011 14 O 7.4
Oggi h: 00:51 sereno Sereno 18 16 88 1011 13 O 9.3
Ieri h: 23:51 sereno Sereno 19 16 82 1011 13 O 7.4
Ieri h: 22:51 sereno Sereno 19 16 82 1011 13 O/NO 13
Ieri h: 21:51 sereno Sereno 19 16 82 1011 13 N 5.5
Ieri h: 20:51 sereno Sereno 19 16 82 1011 14 O 16.7
Ieri h: 19:51 sereno Sereno 19 16 82 1010 14 O 20.3
Ieri h: 18:51 sereno Sereno 21 17 77 1010 13 O 22.2
Ieri h: 17:51 sereno Sereno 22 17 73 1010 13 O 27.8
Ieri h: 16:51 sereno Sereno 23 17 68 1010 13 O 25.9
Ieri h: 15:51 nuvoloso Nuvoloso 24 17 64 1010 14 O 25.9
Ieri h: 14:51 nuvoloso Nuvoloso 24 18 69 1011 13 O 22.2
Ieri h: 13:51 nuvoloso Nuvoloso 25 17 61 1012 10 O 22.2
Ieri h: 12:51 nuvoloso Nuvoloso 24 17 64 1012 14 O 22.2